Regional Weather Roundup
Issued by NWS

Home | Current Version | Previous Version | Graphics & Text | Print | Product List | Glossary On
Versions: 1 2 3 4 5 6 7 8 9 10 11 12 13 14 15 16 17 18 19 20 21 22 23 24 25 26 27 28 29 30 31 32 33 34 35 36 37 38 39 40 41 42 43 44 45 46 47 48 49
000
ASUS45 KBOU 221807
RWRCO

WEATHER ROUNDUP FOR COLORADO
NATIONAL WEATHER SERVICE DENVER/BOULDER CO
1100 AM MST MON DEC 22 2014

NOTE: "FAIR" INDICATES FEW OR NO CLOUDS BELOW 12000 FEET WITH NO
SIGNIFICANT WEATHER AND/OR OBSTRUCTIONS TO VISIBILITY.

COZ001>005-013-030-031-221900-
...NORTHWEST COLORADO...

CITY           SKY/WX    TMP DP  RH WIND       PRES   REMARKS
CRAIG          PTSUNNY   32  26  78 W16       29.81F WCI  21
HAYDEN         CLOUDY    30  21  69 W12       29.80S WCI  21
MEEKER         MIX PCPN  34  27  75 SW12      29.83F WCI  25
MOUNT WERNER   NOT AVBL
STEAMBOAT SPGS CLOUDY    30  22  72 W10G17    29.78S WCI  21
WALDEN         CLOUDY    27  19  74 NW5       29.72S WCI  21
$$

COZ006>008-011-221900-
...WEST CENTRAL VALLEYS...

CITY           SKY/WX    TMP DP  RH WIND       PRES   REMARKS
GRAND JUNCTION CLOUDY    36  35  96 SW3       29.85F
MONTROSE       LGT RAIN  36  34  92 NW7       29.88F
EAGLE          LGT SNOW  34  28  80 SW7       29.83F FOG     WCI  28
RIFLE          CLOUDY    36  31  82 W8        29.84F
DELTA          CLOUDY    40  37  86 W14       29.85F
NUCLA          DRIZZLE   37  36  93 CALM      29.92F
$$

COZ017>023-064>068-221900-
...SOUTHWEST COLORADO...

CITY           SKY/WX    TMP DP  RH WIND       PRES   REMARKS
DURANGO        LGT RAIN  38  35  89 W23G31    29.83F
CORTEZ         LGT RAIN  39  35  86 W9        29.91F
PAGOSA SPRINGS FLURRIES  37  30  75 SW6       29.79F
TELLURIDE      NOT AVBL
WOLF CREEK PAS SNOW      19  19 100 MISG      29.81S VSB 1/2
$$

COZ009-010-012-014-032>034-037-058>063-221900-
...CENTRAL COLORADO...

CITY           SKY/WX    TMP DP  RH WIND       PRES   REMARKS
ASPEN          FLURRIES  28  24  85 N7        29.78F WCI  21
BUENA VISTA    CLOUDY    29  24  81 CALM      29.71F
COPPER MTN     CLOUDY    18  10  73 W26G39    29.69F WCI  -1
BERTHOUD PASS  HVY SNOW   9   3  78 MISG      29.57F VSB<1/4
COTTONWOOD PAS CLOUDY    30  16  55 NW9       29.70F WCI  22
GUNNISON       CLOUDY    28  25  86 W5        29.78F WCI  23
KREMMLING      CLOUDY    32  19  59 W14G21    29.77F WCI  22
LEADVILLE      LGT SNOW  20  14  77 NW14G23   29.71F WCI   7
SALIDA         CLOUDY    32  27  83 N3        29.78F
SUNLIGHT       CLOUDY   N/A N/A N/A MISG      29.81F
WILKERSON PASS LGT SNOW  18  14  86 W6        29.71F VSB 1   WCI   9
$$

COZ069>075-221900-
...SAN LUIS VALLEY/SANGRE DE CRISTO MOUNTAINS...

CITY           SKY/WX    TMP DP  RH WIND       PRES   REMARKS
ALAMOSA        CLOUDY    37  28  70 N8        29.73F
LA VETA PASS   CLOUDY    28  21  74 SW3       29.72F
SAGUACHE       LGT SNOW  32  28  86 NW6       29.75F WCI  26
$$

COZ035-036-038>040-221900-
...NORTHERN COLORADO FRONT RANGE...

CITY           SKY/WX    TMP DP  RH WIND       PRES   REMARKS
DENVER INTL AP PTSUNNY   33  26  75 E6        29.70F WCI  28
DMNS CITY PARK   N/A     38  27  64 E2        29.69F
AURORA         NOT AVBL
FRONT RANGE AP NOT AVBL
ERIE MUNI ARPT   N/A     38  32  81 SE10      29.70S
BOULDER MUN AP PTSUNNY   39  23  52 CALM      29.68F
CENTENNIAL     CLOUDY    33  26  75 W3        29.70F
BROOMFIELD     PTSUNNY   36  28  75 CALM      29.70F
FORT COLLINS   MOSUNNY   37  21  52 N18G29    29.71S
LONGMONT       PTSUNNY   40  30  68 E6        29.71F
$$

COZ041-046-047-076>085-087-088-221900-
...PIKES PEAK/PALMER DIVIDE AND SOUTHERN FOOTHILLS...

CITY           SKY/WX    TMP DP  RH WIND       PRES   REMARKS
COLO. SPRINGS  CLOUDY    33  30  88 SE13      29.72F WCI  24
A. F. ACADEMY  NOT AVBL
ELLICOTT       NOT AVBL
FALCON         CLOUDY    32  26  78 E6        29.72F WCI  26
FORT CARSON    NOT AVBL
LIMON          CLOUDY    33  26  75 W8        29.72F WCI  26
MONUMENT HILL  CLOUDY    30  21  69 CALM      29.69F
TRINIDAD       LGT SNOW  31  29  92 S12       29.77F VSB 3/4 WCI  22
$$

COZ042>045-048>051-090-091-221900-
...NORTHEAST COLORADO...

CITY           SKY/WX    TMP DP  RH WIND       PRES   REMARKS
GREELEY ARPT   PTSUNNY   41  19  42 NW22G28   29.69F
AKRON          PTSUNNY   35  24  64 NW14      29.68F WCI  26
BURLINGTON     SUNNY     43  25  49 NW20G26   29.69F
WRAY           MOSUNNY   41  29  62 W20       29.68F
STERLING       SUNNY     39  30  70 NW12      29.67F
HOLYOKE        MOSUNNY   43  27  52 NW15G24   29.65F
FORT MORGAN    PTSUNNY   35  24  62 NW12      29.70F WCI  27
$$

COZ086-089-092>099-221900-
...SOUTHEAST COLORADO...

CITY           SKY/WX    TMP DP  RH WIND       PRES   REMARKS
PUEBLO         CLOUDY    40  31  70 S7        29.73F
LA JUNTA       CLOUDY    42  27  55 CALM      29.74F
LAMAR          PTSUNNY   44  25  47 NW14      29.72F
SPRINGFIELD      N/A     42  24  49 N21G28    29.72F
$$


USA.gov is the U.S. government's official web portal to all federal, state and local government web resources and services.